Hazlehurst, GA

10:51 AM EST on December 06, 2019 (GMT -0500)
Hazlehurst

Weather History for KAZE - August, 2019

Change the Weather History Date:

Friday, August 23, 2019

  Actual Average Record
Temperature  
Mean Temperature 86 °F -  
Max Temperature 97 °F 88 °F 100 °F (2014)
Min Temperature 76 °F 72 °F 69 °F (2013)
Cooling Degree Days 22    
Growing Degree Days 36 (Base 50)    
Moisture  
Dew Point 70 °F    
Average Humidity 62    
Maximum Humidity 85    
Minimum Humidity 34    
Precipitation  
Precipitation 0.00 in - - ()
Sea Level Pressure  
Sea Level Pressure 30.01 in    
Wind  
Wind Speed 3 mph (South)    
Max Wind Speed 8 mph    
Max Gust Speed -    
Visibility 10 miles    
Events Thunderstorm    
Averages and records for this station are not official NWS values.
T = Trace of Precipitation, MM = Missing Value Source: NWS Daily Summary

Daily Weather History Graph

Daily Weather History Graph

Search for Another Location

Airport or City:

Astronomy

Aug. 23, 2019 Rise Set
Actual Time 7:00 AM EDT 8:05 PM EDT
Civil Twilight 6:35 AM EDT 8:30 PM EDT
Nautical Twilight 6:04 AM EDT 9:00 PM EDT
Astronomical Twilight 5:33 AM EDT 9:31 PM EDT
Moon 12:20 AM EDT (8/23) 2:09 PM EDT (8/23)
Length of Visible Light 13h 55m
Length of Day
13h 05m
Waning Gibbous, 50% of the Moon is Illuminated
Aug 23
Waning Gibbous
Aug 30
New
Sep 5
First Quarter
Sep 14
Full
Sep 21
Last Quarter

Hourly Weather History & Observations

Time (EDT) Temp. Heat Index Dew Point Humidity Pressure Visibility Wind Dir Wind Speed Gust Speed Precip Events Conditions
12:10 AM 81.0 °F 84.7 °F 70.9 °F 71% 30.05 in 10.0 mi SSE 4.6 mph - N/A   Clear
12:30 AM 80.6 °F 84.4 °F 71.1 °F 73% 30.05 in 10.0 mi South 3.5 mph - N/A   Clear
12:50 AM 80.2 °F 83.7 °F 71.1 °F 73% 30.04 in 10.0 mi South 5.8 mph - N/A   Clear
1:10 AM 80.1 °F 83.7 °F 71.4 °F 75% 30.04 in 10.0 mi South 4.6 mph - N/A   Clear
1:30 AM 79.7 °F - 71.6 °F 76% 30.04 in 10.0 mi South 4.6 mph - N/A   Clear
1:50 AM 79.7 °F - 71.6 °F 76% 30.03 in 10.0 mi South 4.6 mph - N/A   Clear
2:10 AM 79.3 °F - 71.8 °F 78% 30.03 in 10.0 mi South 4.6 mph - N/A   Clear
2:30 AM 79.2 °F - 71.8 °F 78% 30.02 in 10.0 mi South 3.5 mph - N/A   Clear
2:50 AM 79.0 °F - 71.6 °F 78% 30.02 in 10.0 mi South 4.6 mph - N/A   Clear
3:10 AM 78.8 °F - 71.8 °F 79% 30.02 in 10.0 mi Calm Calm - N/A   Clear
3:30 AM 78.6 °F - 71.8 °F 79% 30.02 in 10.0 mi South 3.5 mph - N/A   Clear
3:50 AM 78.4 °F - 72.1 °F 81% 30.02 in 10.0 mi SSW 3.5 mph - N/A   Clear
4:10 AM 78.1 °F - 72.0 °F 81% 30.02 in 10.0 mi Calm Calm - N/A   Clear
4:30 AM 77.9 °F - 71.8 °F 81% 30.02 in 10.0 mi Calm Calm - N/A   Clear
4:50 AM 77.5 °F - 72.1 °F 83% 30.02 in 10.0 mi Calm Calm - N/A   Clear
5:10 AM 77.2 °F - 71.8 °F 83% 30.02 in 10.0 mi Calm Calm - N/A   Clear
5:30 AM 77.0 °F - 71.8 °F 84% 30.02 in 10.0 mi Calm Calm - N/A   Clear
5:50 AM 77.0 °F - 71.8 °F 84% 30.02 in 10.0 mi Calm Calm - N/A   Clear
6:10 AM 77.0 °F - 71.8 °F 84% 30.03 in 10.0 mi Calm Calm - N/A   Clear
6:30 AM 77.0 °F - 71.8 °F 84% 30.03 in 10.0 mi Calm Calm - N/A   Clear
6:50 AM 77.0 °F - 72.0 °F 84% 30.04 in 10.0 mi Calm Calm - N/A   Clear
7:10 AM 76.5 °F - 71.8 °F 85% 30.04 in 10.0 mi Calm Calm - N/A   Clear
7:30 AM 77.4 °F - 72.0 °F 83% 30.05 in 10.0 mi Calm Calm - N/A   Clear
7:50 AM 77.9 °F - 72.1 °F 82% 30.05 in 10.0 mi Calm Calm - N/A   Clear
8:10 AM 77.5 °F - 72.1 °F 83% 30.05 in 10.0 mi Calm Calm - N/A   Clear
8:30 AM 78.3 °F - 72.3 °F 82% 30.06 in 10.0 mi Calm Calm - N/A   Clear
8:50 AM 80.6 °F 85.0 °F 72.7 °F 77% 30.07 in 10.0 mi Calm Calm - N/A   Clear
9:10 AM 82.8 °F 88.4 °F 72.9 °F 72% 30.07 in 10.0 mi Calm Calm - N/A   Clear
9:30 AM 84.6 °F 90.7 °F 72.5 °F 67% 30.06 in 10.0 mi Calm Calm - N/A   Clear
9:50 AM 86.4 °F 92.6 °F 72.0 °F 62% 30.07 in 10.0 mi Calm Calm - N/A   Clear
10:10 AM 87.6 °F 94.3 °F 72.1 °F 60% 30.07 in 10.0 mi Calm Calm - N/A   Clear
10:30 AM 89.1 °F 95.5 °F 71.6 °F 56% 30.07 in 10.0 mi Calm Calm - N/A   Clear
10:50 AM 89.2 °F 95.4 °F 71.2 °F 55% 30.07 in 10.0 mi Calm Calm - N/A   Clear
11:10 AM 90.7 °F 95.0 °F 68.7 °F 48% 30.06 in 10.0 mi Calm Calm - N/A   Clear
11:50 AM 92.5 °F 96.9 °F 68.5 °F 45% 30.05 in 10.0 mi WNW 3.5 mph - N/A   Mostly Cloudy
12:10 PM 90.0 °F 94.5 °F 69.1 °F 50% 30.05 in 10.0 mi Calm Calm - N/A   Mostly Cloudy
12:30 PM 90.7 °F 94.5 °F 68.2 °F 47% 30.05 in 10.0 mi Calm Calm - N/A   Scattered Clouds
12:50 PM 91.2 °F 94.6 °F 67.3 °F 45% 30.04 in 10.0 mi Calm Calm - N/A   Scattered Clouds
1:10 PM 93.7 °F 97.7 °F 67.5 °F 42% 30.02 in 10.0 mi SSE 3.5 mph - N/A   Scattered Clouds
1:30 PM 94.1 °F 97.3 °F 66.2 °F 40% 30.02 in 10.0 mi Calm Calm - N/A   Clear
1:50 PM 95.2 °F 98.8 °F 66.7 °F 39% 30.01 in 10.0 mi SE 4.6 mph - N/A   Clear
2:10 PM 94.3 °F 97.7 °F 66.6 °F 40% 30.00 in 10.0 mi South 3.5 mph - N/A   Scattered Clouds
2:30 PM 94.1 °F 97.3 °F 66.7 °F 40% 29.99 in 10.0 mi SSE 3.5 mph - N/A   Scattered Clouds
3:10 PM 94.8 °F 97.6 °F 65.5 °F 38% 29.97 in 10.0 mi Calm Calm - N/A   Clear
3:30 PM 94.3 °F 97.7 °F 66.4 °F 40% 29.97 in 10.0 mi South 4.6 mph - N/A   Mostly Cloudy
3:50 PM 95.2 °F 98.3 °F 66.0 °F 38% 29.96 in 10.0 mi SSW 3.5 mph - N/A   Scattered Clouds
4:10 PM 95.9 °F 99.0 °F 65.7 °F 37% 29.96 in 10.0 mi SE 4.6 mph - N/A   Mostly Cloudy
4:30 PM 96.4 °F 99.4 °F 65.1 °F 36% 29.95 in 10.0 mi SSW 5.8 mph - N/A   Scattered Clouds
4:50 PM 96.6 °F 98.7 °F 63.9 °F 34% 29.94 in 10.0 mi SW 6.9 mph - N/A   Scattered Clouds
5:10 PM 97.0 °F 101.0 °F 66.6 °F 37% 29.95 in 10.0 mi South 8.1 mph - N/A   Scattered Clouds
5:30 PM 95.9 °F 99.6 °F 66.6 °F 38% 29.94 in 10.0 mi South 5.8 mph - N/A   Scattered Clouds
5:50 PM 95.9 °F 98.5 °F 65.3 °F 36% 29.95 in 10.0 mi SSW 3.5 mph - N/A   Scattered Clouds
6:10 PM 95.9 °F 99.6 °F 66.4 °F 38% 29.95 in 10.0 mi SSE 5.8 mph - N/A Thunderstorm Scattered Clouds
6:30 PM 95.0 °F 97.9 °F 65.7 °F 38% 29.95 in 10.0 mi South 5.8 mph - N/A   Scattered Clouds
6:50 PM 94.5 °F 97.0 °F 65.3 °F 38% 29.95 in 10.0 mi South 3.5 mph - N/A Thunderstorm Clear
7:10 PM 93.4 °F 97.6 °F 67.8 °F 43% 29.96 in 10.0 mi Calm Calm - N/A   Mostly Cloudy
7:35 PM 88.9 °F 94.7 °F 70.7 °F 55% 29.96 in 10.0 mi North 3.5 mph - N/A   Scattered Clouds
7:50 PM 87.1 °F 92.8 °F 71.1 °F 59% 29.97 in 10.0 mi North 4.6 mph - N/A   Mostly Cloudy
8:10 PM 85.8 °F 91.1 °F 71.1 °F 61% 29.97 in 10.0 mi Calm Calm - N/A   Mostly Cloudy
8:30 PM 85.1 °F 90.8 °F 71.6 °F 64% 29.97 in 10.0 mi Calm Calm - N/A   Scattered Clouds
8:50 PM 85.3 °F 90.4 °F 71.1 °F 62% 29.98 in 10.0 mi Calm Calm - N/A Thunderstorm Clear
9:10 PM 84.4 °F 89.7 °F 71.2 °F 65% 29.98 in 10.0 mi East 4.6 mph - N/A   Scattered Clouds
9:30 PM 84.6 °F 89.4 °F 70.9 °F 63% 29.99 in 10.0 mi ESE 5.8 mph - N/A   Mostly Cloudy
9:50 PM 84.4 °F 89.0 °F 70.7 °F 63% 29.99 in 10.0 mi Calm Calm - N/A   Scattered Clouds
10:10 PM 84.6 °F 88.8 °F 70.0 °F 61% 30.00 in 10.0 mi SE 4.6 mph - N/A Thunderstorm Clear
10:30 PM 84.4 °F 88.5 °F 69.4 °F 61% 30.01 in 10.0 mi SE 3.5 mph - N/A Thunderstorm Thunderstorm
10:50 PM 84.9 °F 88.8 °F 69.3 °F 59% 30.02 in 10.0 mi Calm Calm - N/A   Scattered Clouds
11:10 PM 84.2 °F 88.4 °F 69.8 °F 62% 30.02 in 10.0 mi Calm Calm - N/A   Scattered Clouds
11:30 PM 82.6 °F 87.1 °F 70.9 °F 68% 30.02 in 10.0 mi Calm Calm - N/A   Scattered Clouds
11:50 PM 80.8 °F 84.9 °F 72.0 °F 74% 30.02 in 10.0 mi Calm Calm - N/A   Scattered Clouds